星链-30369 (STARLINK-30369 )

导读

STARLINK-30369是美国SpaceX公司星链(Starlink)星座的一员,于2023年9月4日发射入轨,属于星链低轨卫星互联网项目。星链计划旨在构建全球覆盖的高速低延迟卫星互联网网络,弥补偏远地区传统地面网络覆盖空白,可为海事、航空、灾害救援等场景提供稳定通信服务,STARLINK-30369的入轨进一步扩充了星链在轨卫星规模,助力全球网络覆盖完善。

基本信息
目录编号:
57781
目录名称:
STARLINK-30369
国际标识:
2023-134L
轨道中心:
EARTH
卫星名称:
星链-30369
卫星全名:
星链-30369 (STARLINK-30369 )
卫星状态:
在轨 (已飞行1096 天)
发射日期:
2023-09-04 UTC
国别 :
美国 (US)
星等 :
--
轨道信息
数据来源 国际轨道数据
星历时间: 2026-09-04T10:23:02+0800
13小时前
查看轨道信息
半长轴: 6861.202km
偏心率: 0.0001094
轨道倾角: 43.003°
近地点辐角 275.736°
升交点赤经 266.793°
平近点角 84.336°
近地点: 482.314km
远地点: 483.816km
周期: 94.267分钟
每日圈数: 15.27575
详细信息
固有亮度:
5
最大亮度:
0.3
卫星平台:
Starlink v2.0 mini
覆盖范围:
全球
运营商:
太空探索技术公司
运营商所在国:
美国
制造商(研发单位):
太空探索技术公司
制造商所在国:
美国
使用方式:
暂无
卫星简介
星链(Starlink)计划是由太空探索技术公司(SpaceX)提出的一个巨型低轨卫星互联网星座项目,计划在2019年至2024年间在太空搭建由约1.2万颗卫星组成的“星链”网络,其中1584颗将部署在地球上空550千米处的近地轨道,并从2020年开始工作。该卫星仍在工作。
2D轨道图
3D轨道图
轨道高度分析图
轨道倾角分析图
轨道综合分析图
查看轨道综合分析图
交会数据列表
事件ID 空间交会对象 最接近时刻(TCA) 交会距离 交会风险概率(CRP) 交会风险指数(CRI) 操作
CDM_260906-202605-778105-862421
2026-09-06T
20:26:31+0000
0.064 km
近距离
1.32524E-3 极高风险 0.97
CDM_260906-070905-778106-495221
2026-09-06T
07:09:23+0000
0.631 km
远距离
1.102556E-4 高风险 0.76
CDM_260905-175405-778106-436321
2026-09-05T
17:54:22+0000
0.627 km
远距离
6.277558E-5 中风险 0.71
CDM_260903-050405-778105-870023
2026-09-03T
05:04:18+0000
0.982 km
远距离
2.809474E-5 中风险 0.64
CDM_260904-200005-778106-395121
2026-09-04T
20:00:22+0000
1.964 km
极远距离
2.135386E-6 低风险 0.42
CDM_260904-191305-778106-395121
2026-09-04T
19:13:16+0000
2.110 km
极远距离
1.796768E-6 低风险 0.4
CDM_260907-033005-778105-862421
2026-09-07T
03:30:11+0000
2.222 km
极远距离
1.678036E-6 低风险 0.39
CDM_260829-000905-778106-549123
OBJECT-D (65491)
2026-08-29T
00:09:07+0000
2.549 km
极远距离
1.585076E-6 低风险 0.39